This is the latest recevied weather packets stored in our database for station/object WC4PEM-1. If no packets are shown the sender has not sent any weather packets the latest 10 day(s).
| Time | Temp. | Humidity | Pressure | Rain* | Wind** | Luminosity | Snow |
|---|---|---|---|---|---|---|---|
| 1787772607 | 32.78° C | 60% | 1014 hPa | 0.25 mm | - | 889 W/m² | - |
| 1787772391 | 32.78° C | 61% | 1014.1 hPa | 1.52 mm | - | 872 W/m² | - |
| 1787772307 | 32.78° C | 61% | 1014.1 hPa | 1.52 mm | - | 872 W/m² | - |
| 1787772007 | 32.78° C | 63% | 1014.1 hPa | 2.29 mm | - | 888 W/m² | - |
| 1787771707 | 32.78° C | 61% | 1014.1 hPa | 2.29 mm | - | 877 W/m² | - |
| 1787771407 | 32.78° C | 65% | 1014.1 hPa | 2.29 mm | - | 854 W/m² | - |
| 1787771107 | 32.22° C | 62% | 1014.1 hPa | 2.29 mm | - | 856 W/m² | - |
| 1787770868 | 31.67° C | 67% | 1014 hPa | 2.29 mm | - | 856 W/m² | - |
| 1787770807 | 31.67° C | 67% | 1014 hPa | 2.29 mm | - | 856 W/m² | - |
| 1787770590 | 31.67° C | 66% | 1014.2 hPa | 2.29 mm | - | 107 W/m² | - |
| 1787770507 | 31.67° C | 66% | 1014.2 hPa | 2.29 mm | - | 107 W/m² | - |
| 1787770274 | 31.11° C | 74% | 1014.2 hPa | 2.29 mm | - | 872 W/m² | - |
| 1787770207 | 31.11° C | 74% | 1014.2 hPa | 2.29 mm | - | 872 W/m² | - |
| 1787769907 | 30.56° C | 73% | 1014.4 hPa | 2.29 mm | - | 882 W/m² | - |
| 1787769607 | 30.56° C | 74% | 1014.5 hPa | 2.29 mm | - | 900 W/m² | - |
| 1787769307 | 30° C | 70% | 1014.5 hPa | 2.29 mm | - | 954 W/m² | - |
| 1787769007 | 30° C | 65% | 1014.8 hPa | 2.03 mm | - | 241 W/m² | - |
| 1787768707 | 32.22° C | 64% | 1014.8 hPa | 0.76 mm | - | 149 W/m² | - |
| 1787768499 | 33.89° C | 56% | 1014.8 hPa | 0 mm | - | 153 W/m² | - |
| 1787768407 | 33.89° C | 56% | 1014.8 hPa | 0 mm | - | 153 W/m² | - |
| 1787768107 | 34.44° C | 55% | 1014.9 hPa | 0 mm | - | 139 W/m² | - |
| 1787767808 | 35.56° C | 52% | 1015.1 hPa | 0 mm | - | 155 W/m² | - |
| 1787767613 | 36.11° C | 53% | 1015.1 hPa | 0 mm | - | 1014 W/m² | - |
| 1787767507 | 36.11° C | 53% | 1015.1 hPa | 0 mm | - | 1014 W/m² | - |
| 1787767207 | 36.11° C | 53% | 1015.2 hPa | 0 mm | - | 993 W/m² | - |
* Rain latest hour (hover to see other rain measurements)
** Current wind speed in m/s (hover to see current wind gust speed)